Weather History for KTAD - May, 2013

Change the Weather History Date:

Monday, May 27, 2013

  Actual Average Record
Temperature  
Mean Temperature 69 °F 62 °F  
Max Temperature 85 °F 78 °F 91 °F (2006)
Min Temperature 52 °F 47 °F 36 °F (1973)
Degree Days  
Heating Degree Days 0 4  
Month to date heating degree days 226 190  
Since 1 July heating degree days 5434 5480  
Cooling Degree Days 4 1  
Month to date cooling degree days 53 16  
Year to date cooling degree days 57 18  
Growing Degree Days 18 (Base 50)    
Moisture  
Dew Point 8 °F    
Average Humidity 12    
Maximum Humidity 19    
Minimum Humidity 5    
Precipitation  
Precipitation 0.00 in 0.06 in 2.00 in (1953)
Month to date precipitation 0.51 1.37  
Year to date precipitation 1.94 4.28  
Sea Level Pressure  
Sea Level Pressure 29.63 in    
Wind  
Wind Speed 11 mph (WSW)    
Max Wind Speed 24 mph    
Max Gust Speed 38 mph    
Visibility 10 miles    
Events      
T = Trace of Precipitation, MM = Missing Value Source: NWS Daily Summary

Daily Weather History Graph

Daily Weather History Graph

Search for Another Location

Airport or City:

Trip Planner

Search our weather history database for the weather conditions in past years. The results will help you decide how hot, cold, wet, or windy it might be!

Date:

Astronomy

May. 27, 2013 Rise Set
Actual Time 5:40 AM MDT 8:08 PM MDT
Civil Twilight 5:10 AM MDT 8:39 PM MDT
Nautical Twilight 4:33 AM MDT 9:16 PM MDT
Astronomical Twilight 3:52 AM MDT 9:57 PM MDT
Moon 10:51 PM MDT (5/27) 8:19 AM MDT (5/27)
Length of Visible Light 15h 28m
Length of Day
14h 28m
Waning Gibbous, 90% of the Moon is Illuminated
May 27
Waning Gibbous
May 31
Last Quarter
Jun 8
New
Jun 16
First Quarter
Jun 23
Full

Hourly Weather History & Observations

Time (MDT) Temp. Dew Point Humidity Pressure Visibility Wind Dir Wind Speed Gust Speed Precip Events Conditions
12:54 AM 66.0 °F 8.1 °F 10% 29.66 in 10.0 mi WSW 15.0 mph - N/A   Clear
1:54 AM 63.0 °F 8.1 °F 11% 29.67 in 10.0 mi WSW 11.5 mph - N/A   Clear
2:54 AM 60.1 °F 9.0 °F 13% 29.67 in 10.0 mi SW 16.1 mph - N/A   Clear
3:54 AM 55.9 °F 10.0 °F 16% 29.68 in 10.0 mi WSW 12.7 mph - N/A   Clear
4:54 AM 57.0 °F 10.0 °F 15% 29.68 in 10.0 mi WSW 13.8 mph - N/A   Clear
5:54 AM 53.1 °F 12.9 °F 20% 29.69 in 10.0 mi WSW 15.0 mph - N/A   Clear
6:54 AM 64.0 °F 12.0 °F 13% 29.68 in 10.0 mi WSW 13.8 mph - N/A   Clear
7:54 AM 69.1 °F 12.0 °F 11% 29.67 in 10.0 mi WSW 16.1 mph - N/A   Clear
8:54 AM 71.1 °F 12.9 °F 11% 29.70 in 10.0 mi WSW 9.2 mph - N/A   Clear
9:54 AM 73.0 °F 12.9 °F 10% 29.71 in 10.0 mi WSW 11.5 mph - N/A   Clear
10:54 AM 75.9 °F 10.9 °F 8% 29.68 in 10.0 mi West 5.8 mph - N/A   Clear
11:54 AM 80.1 °F 6.1 °F 6% 29.65 in 10.0 mi West 6.9 mph - N/A   Clear
12:54 PM 82.0 °F 5.0 °F 5% 29.62 in 10.0 mi Variable 4.6 mph - N/A   Clear
1:54 PM 82.9 °F 6.1 °F 5% 29.60 in 10.0 mi Variable 6.9 mph - N/A   Clear
2:54 PM 82.0 °F 6.1 °F 6% 29.59 in 10.0 mi East 9.2 mph - N/A   Clear
3:54 PM 82.0 °F 8.1 °F 6% 29.57 in 10.0 mi East 10.4 mph - N/A   Clear
4:54 PM 82.0 °F 5.0 °F 5% 29.53 in 10.0 mi East 5.8 mph - N/A   Clear
5:54 PM 81.0 °F 9.0 °F 6% 29.54 in 10.0 mi Variable 3.5 mph - N/A   Clear
6:42 PM 82.4 °F 3.2 °F 5% 29.78 in 10.0 mi West 21.9 mph 26.5 mph N/A   Clear
6:54 PM 82.0 °F 3.9 °F 5% 29.52 in 10.0 mi West 18.4 mph 28.8 mph N/A   Clear
7:54 PM 73.9 °F 5.0 °F 7% 29.55 in 10.0 mi West 11.5 mph - N/A   Clear
8:54 PM 68.0 °F 7.0 °F 9% 29.58 in 10.0 mi WNW 5.8 mph - N/A   Clear
9:54 PM 62.1 °F 9.0 °F 12% 29.62 in 10.0 mi WSW 15.0 mph - N/A   Clear
10:54 PM 64.9 °F 9.0 °F 11% 29.60 in 10.0 mi WSW 18.4 mph - N/A   Clear
11:54 PM 64.0 °F 9.0 °F 12% 29.60 in 10.0 mi WSW 15.0 mph - N/A   Clear